Location: Arthez
(43.0833°N, 0.2500°W)
Time: 05:37:47
(UTC+00:00)

Cosmos 304 Rocket - Pass Details

Date: 07 June 2022
Orbit: 679 x 686 km, 74.0° (Epoch: 03 July)

Event Time Altitude Azimuth Distance (km) Brightness Sun altitude
Exits shadow 23:24:03 23° 250° (WSW) 1,453 5.3 -23.6°
Maximum altitude 23:26:18 35° 298° (WNW) 1,114 5.1 -23.6°
Drops below altitude 10° 23:30:43 10° 4° (N) 2,142 7.4 -23.7°
Sets 23:33:13 0° 13° (NNE) 3,062 8.3 -23.8°
